Regional Weather Roundup
Issued by NWS

Home | Current Version | Previous Version | Graphics & Text | Print | Product List | Glossary On
Versions: 1 2 3 4 5 6 7 8 9 10 11 12 13 14 15 16 17 18 19 20 21 22 23 24 25 26 27 28 29 30 31 32 33 34 35 36 37 38 39 40 41 42 43 44 45 46 47 48 49 50
544
ASUS43 KMKX 241311
RWRWI

WISCONSIN REGIONAL WEATHER ROUNDUP
NATIONAL WEATHER SERVICE MILWAUKEE/SULLIVAN WI
700 AM CST FRI FEB 24 2017

NOTE: "FAIR" INDICATES FEW OR NO CLOUDS BELOW 12,000 FEET WITH NO
SIGNIFICANT WEATHER AND/OR OBSTRUCTIONS TO VISIBILITY.

WIZ001-002-006>008-014>016-023>028-241400-
NORTHWEST WISCONSIN

CITY           SKY/WX    TMP DP  RH WIND       PRES   REMARKS
SUPERIOR ARPT  CLOUDY    21  13  70 NE9       29.96F WCI  11
ASHLAND        LGT SNOW  24  18  77 NE20G25   29.93F WCI  10
HAYWARD        CLOUDY    24  17  74 N17       29.84F WCI  11
SIREN          CLOUDY    24  18  75 NE16      29.86F WCI  11
CUMBERLAND     CLOUDY    27  19  74 N13       29.78F WCI  16
RICE LAKE      LGT SNOW  27  25  91 N10       29.81S WCI  17
CHETEK         LGT SNOW  26  24  92 N7        29.78F WCI  19
LADYSMITH      LGT SNOW  27  25  91 N13       29.79F WCI  16
EAU CLAIRE     LGT SNOW  27  25  92 N10       29.75F VSB 3/4 WCI  17
MENOMONIE      LGT SNOW  28  26  92 N12       29.78S WCI  17
NEW RICHMOND   CLOUDY    27  18  70 N17       29.80R WCI  14
OSCEOLA        CLOUDY    26  18  71 N13       29.85F WCI  15
$$

WIZ003>005-009-010-017-018-241400-
NORTH CENTRAL WISCONSIN

CITY           SKY/WX    TMP DP  RH WIND       PRES   REMARKS
MANITOWISH WTR LGT SNOW  21  21 100 NE9       29.81F VSB 1   WCI  10
ARBOR VITAE    SNOW      23  21  91 NE7G16      N/A  VSB 1/2 WCI  15
WOODRUFF       SNOW      23  21  91 NE7G16      N/A  VSB 1/2 WCI  15
RHINELANDER    HVY SNOW  24  23  96 NE14G23   29.76F VSB 1/4 WCI  12
EAGLE RIVER    LGT SNOW  22  21  94 NE16G25   29.79S VSB 3/4 WCI   8
LAND O LAKES   CLOUDY    22  20  93 N15       29.83F WCI   8
PHILLIPS       LGT SNOW  24  23  96 N13G20    29.77F VSB 3/4 WCI  12
TOMAHAWK       SNOW      24  23  93 N13G23    29.76F VSB 1/2 WCI  13
MEDFORD        LGT SNOW  26  23  91 NE13      29.71F WCI  15
MERRILL        NOT AVBL
$$

WIZ029-030-035-036-043>047-241400-
CENTRAL WISCONSIN

CITY           SKY/WX    TMP DP  RH WIND       PRES   REMARKS
WAUSAU         LGT SNOW  27  25  92 NE6       29.72F VSB 1   WCI  20
MOSINEE        SNOW      27  27 100 NE12G17   29.73F VSB 1/2 WCI  16
MARSHFIELD     FOG       27  24  89 NE12      29.69F VSB 1   WCI  17
STEVENS POINT  MIX PCPN  26  26 100 NE12      29.71F WCI  16
WAUPACA        LGT SNOW  30  28  90 N12G17    29.70F WCI  21
WAUTOMA        LGT SNOW  28  26  92 NE17G25   29.67F VSB 1   WCI  16
WISC RAPIDS    LGT SNOW  28  27  96 NE9       29.70F VSB 1   WCI  19
CAMP DOUGLAS   LGT SNOW  28  27  93 N10G18    29.67S FOG     WCI  19
$$

WIZ011>013-019>022-031-037>040-048>050-241400-
NORTHEAST WISCONSIN

CITY           SKY/WX    TMP DP  RH WIND       PRES   REMARKS
ANTIGO         LGT SNOW  25  25  98 NE13      29.75S VSB 1   WCI  14
SHAWANO        LGT SNOW  30  28  90 NE13G18   29.76F VSB 1   WCI  20
OCONTO         CLOUDY    29  26  88 NE16G23   29.77R WCI  17
STURGEON BAY   LGT SNOW  30  28  92 NE16G30   29.71R FOG     WCI  19
GREEN BAY      SNOW      30  30 100 NE23G35   29.70F VSB 1/2 WCI  17
MANITOWOC      LGT SNOW  32  28  85 NE15G24   29.69R FOG     WCI  22
APPLETON       LGT SNOW  28  27  93 NE18G28   29.66F WCI  16
CLINTONVILLE   LGT SNOW  28  28 100 NE13G21   29.74R WCI  18
OSHKOSH        LGT SNOW  30  27  88 NE20G29   29.65R FOG     WCI  17
$$

WIZ032>034-041-042-053>061-241400-
SOUTHWEST WISCONSIN

CITY           SKY/WX    TMP DP  RH WIND       PRES   REMARKS
LA CROSSE      LGT SNOW  31  27  85 N15G24    29.68F FOG     WCI  20
SPARTA         LGT SNOW  29  28  96 NE9       29.69S WCI  21
VIROQUA        CLOUDY    29  27  92 NE21G31   29.61F WCI  15
BOSCOBEL       FRZ RAIN  32  28  85 NE9G22    29.61S FOG     WCI  24
PRAIRIE DU CHI MIX PCPN  31  30  96 NE8G20    29.59F WCI  24
PLATTEVILLE    CLOUDY    32  32 100 NE14      29.53S WCI  22
$$

WIZ056-057-062-063-064-067-068-241400-
SOUTH CENTRAL WISCONSIN

CITY           SKY/WX    TMP DP  RH WIND       PRES   REMARKS
REEDSBURG      MIX PCPN  29  29  99 NE12G18   29.62F WCI  19
BARABOO/DELLS  MIX PCPN  29  28  96 NE10      29.61F WCI  20
LONE ROCK      CLOUDY    32  27  81 NE14      29.61S WCI  22
MINERAL POINT  LGT RAIN  32  32 100 NE9       29.53S WCI  24
MADISON        CLOUDY    32  30  92 NE17G23   29.57S WCI  21
MIDDLETON      CLOUDY    33  33  99 NE14      29.58S WCI  24
WATERTOWN      CLOUDY    32  32 100 NE15      29.56S WCI  22
MONROE         CLOUDY    32  32 100 NE21      29.50F WCI  20
JANESVILLE     CLOUDY    36  36 100 NE12G17   29.51F WCI  27
$$

WIZ051-052-058>065-066-070>072-241400-
SOUTHEAST WISCONSIN

CITY           SKY/WX    TMP DP  RH WIND       PRES   REMARKS
MILWAUKEE      CLOUDY    36  33  89 N17G26    29.55F WCI  26
WAUKESHA       CLOUDY    34  30  86 NE21G35   29.58F WCI  22
MILWAUKEE/TIMM CLOUDY    32  32 100 NE13G23   29.56F WCI  22
RACINE         CLOUDY    37  34  89 NE23G33   29.54F WCI  26
KENOSHA        CLOUDY    36  34  92 NE17G25   29.52F WCI  26
FOND DU LAC    LGT SNOW  32  27  81 NE21G30   29.64R WCI  20
SHEBOYGAN      FRZ RAIN  32  30  92 NE30G37   29.63R FOG     WCI  18
WEST BEND      CLOUDY    32  32 100 NE16      29.58S WCI  21
JUNEAU         TSTM      32  30  94 NE12G21   29.58F WCI  23
$$

LSZ147-162-241400-
LAKE SUPERIOR

STATION/POSITION TIME  TEMP    WIND        PRES    WAVE
                       AIR SEA DIR/SP/G            HT/PER
                 (UTC) (F)     (DEG/KT/KT) (MB)    (FT/S)
DEVILS ISLAND    1200   23      40/ 24/ 27 1016.6R
PORT WING        1240   25      50/ 19/ 25 1014.6F
SAXON HARBOR     1230   26      50/ 24/ 28 1013.9R
$$

LMZ867-665-643>646-241400-
LAKE MICHIGAN

STATION/POSITION TIME  TEMP    WIND        PRES    WAVE
                       AIR SEA DIR/SP/G            HT/PER
                 (UTC) (F)     (DEG/KT/KT) (MB)    (FT/S)
CHAMBERS ISLAND  1240   29      20/ 26/ 31 1006.4F
NORTHPORT PIER   1240   30      30/ 18/ 24 1007.8F
SISTER BAY       1205   30     100/  9/ 16   N/A
KEWAUNEE LAKESHO 1248   33      60/ 25/ 32 1004.9R
SHEBOYGAN LAKESH 1300   33      30/ 29/ 33 1003.8R
PORT WASHINGTON  1230   34      40/ 24/ 27 1003.7S
MILWAUKEE LAKESH 1250   35      30/ 23/ 28   N/A
KENOSHA   LAKESH 1200   36      20/ 18/ 21 1001.4
$$

TC  - TEMPERATURE IN CELSIUS
VSB - VISIBILITY IN STATUTE MILES
WCI - WIND CHILL INDEX
HX  - HEAT INDEX





USA.gov is the U.S. government's official web portal to all federal, state and local government web resources and services.